TimeMDT,TemperatureF,Dew PointF,Humidity,Sea Level PressureIn,VisibilityMPH,Wind Direction,Wind SpeedMPH,Gust SpeedMPH,PrecipitationIn,Events,Conditions,WindDirDegrees,DateUTC
12:53 AM,64.0,55.0,73,30.05,10.0,SE,5.8,-,0.00,Rain,Light Rain,130,2013-09-12 06:53:00
1:53 AM,62.1,57.0,84,30.06,7.0,East,5.8,-,0.05,Rain,Rain,90,2013-09-12 07:53:00
2:53 AM,62.1,57.0,84,30.06,10.0,ENE,10.4,-,0.02,Rain,Light Rain,60,2013-09-12 08:53:00
3:53 AM,61.0,55.9,83,30.05,10.0,NNE,9.2,-,0.01,,Overcast,30,2013-09-12 09:53:00
4:53 AM,60.1,55.9,86,30.04,10.0,NNE,11.5,-,N/A,,Scattered Clouds,20,2013-09-12 10:53:00
5:53 AM,61.0,55.9,83,30.06,10.0,NNE,9.2,-,N/A,,Overcast,30,2013-09-12 11:53:00
6:53 AM,62.1,54.0,75,30.05,10.0,NE,4.6,-,N/A,,Mostly Cloudy,50,2013-09-12 12:53:00
7:53 AM,60.1,55.0,83,30.08,10.0,North,8.1,-,N/A,,Mostly Cloudy,360,2013-09-12 13:53:00
8:53 AM,64.0,55.0,73,30.08,10.0,ENE,5.8,-,N/A,,Scattered Clouds,60,2013-09-12 14:53:00
9:53 AM,70.0,54.0,57,30.06,10.0,NE,8.1,-,N/A,,Partly Cloudy,50,2013-09-12 15:53:00
10:53 AM,73.9,53.1,48,30.05,10.0,East,4.6,-,N/A,,Clear,100,2013-09-12 16:53:00
11:53 AM,75.9,51.1,42,30.03,10.0,SE,6.9,-,N/A,,Partly Cloudy,140,2013-09-12 17:53:00
12:53 PM,78.1,52.0,40,30.00,10.0,East,9.2,-,N/A,,Partly Cloudy,100,2013-09-12 18:53:00
1:53 PM,80.1,48.0,32,29.98,10.0,ESE,8.1,-,N/A,,Partly Cloudy,120,2013-09-12 19:53:00
2:53 PM,81.0,48.0,31,29.95,10.0,SSW,9.2,-,N/A,,Scattered Clouds,210,2013-09-12 20:53:00
3:53 PM,82.0,46.9,29,29.92,10.0,Variable,4.6,-,N/A,,Scattered Clouds,0,2013-09-12 21:53:00
4:53 PM,77.0,50.0,39,29.93,10.0,SE,10.4,-,0.00,,Scattered Clouds,130,2013-09-12 22:53:00
5:53 PM,75.0,53.1,46,29.92,10.0,NW,9.2,-,N/A,,Scattered Clouds,310,2013-09-12 23:53:00
6:53 PM,75.0,53.1,46,29.91,10.0,NE,4.6,-,N/A,,Scattered Clouds,40,2013-09-13 00:53:00
7:16 PM,75.2,48.2,38,30.04,10.0,East,8.1,-,N/A,Thunderstorm,Thunderstorm,80,2013-09-13 01:16:00
7:53 PM,73.4,51.8,47,29.93,10.0,Variable,3.5,-,N/A,Thunderstorm,Thunderstorm,0,2013-09-13 01:53:00
8:53 PM,70.0,50.0,49,29.94,10.0,Calm,Calm,-,N/A,,Partly Cloudy,0,2013-09-13 02:53:00
9:53 PM,64.0,48.9,58,29.94,10.0,SSW,5.8,-,N/A,,Clear,200,2013-09-13 03:53:00
10:34 PM,64.4,48.2,56,30.07,10.0,SSW,3.5,-,N/A,,Partly Cloudy,200,2013-09-13 04:34:00
10:53 PM,62.1,50.0,65,29.95,10.0,South,6.9,-,N/A,,Partly Cloudy,180,2013-09-13 04:53:00
11:53 PM,64.9,48.0,54,29.94,10.0,South,11.5,-,N/A,,Clear,190,2013-09-13 05:53:00